Weather in Menzelinsk

Russia / Republic of Tatarstan     55°43′11″N   53°06′05″E
temp.,
°C
wind,
m/s
gust,
m/s
humid.,
%
clouds,
%
prec.,
mm/h
press.,
hPa
HPBL,
m
30 november, tue
tue3000:00+1sse71589100 0.8 1014423
03:00+2sse81781100 0.8 1011526
06:000sse91979100 0.0 1007486
09:000sse91979100 0.0 1005528
12:00+1sse112282100 1.1 1001742
15:00+2s122494100 3.4 996826
18:00+2ssw102193100 1.6 995740
21:00+2ssw91899100 1.8 996562
1 december, wed
wed100:00+3s71498100 0.0 996426
03:00+3ssw71496100 0.1 996380
06:00+3s51193100 0.0 996302
09:00+1se49100100 0.0 995249
12:00+2se510100100 0.2 993292
15:00+2se5998100 1.8 988306
18:00+1sse61299100 7.4 986428
21:00+2ssw51199100 8.8 987516
2 december, thu
thu200:000w8129480 0.4 991623
03:00−2wsw8138676 0.4 996594
06:00−4wsw6118961 0.0 998481
09:00−3sw6108879 0.0 1000613
12:00−2sw61085100 0.0 1001853
15:00−1sw71291100 0.4 1001903
18:00−4wsw6118862 0.1 1004549
21:00−5wsw61185100 0.1 1005659
3 december, fri
fri300:00−4wsw6118399 0.0 1006754
03:00−4sw5108598 0.0 1007539
06:00−3sw5986100 0.0 1007478
09:00−2ssw5119497 0.1 1007553
12:00−1sw61392100 0.3 1007632
15:00+1wsw71494100 0.4 1009688
18:00+1wsw7139178 0.0 1011541
21:00+2wsw71184100 0.0 1013569
4 december, sat
sat400:00+1sw4994100 0.1 1015323
03:00+1s51194100 0.1 1015321
06:00+2s71594100 0.0 1014410
09:00+3ssw8169291 0.0 1014507
12:00+4ssw102181100 0.0 1012574
15:00+3ssw102085100 0.0 1013656
18:00+3ssw91889100 0.1 1013786
21:00+2ssw81697100 1.4 1014788